Location: Gorze? G�rny
(49.8500°N, 19.5000°E)
Time: 03:52:42
(UTC+00:00)

Cosmos 1515 Rocket - Pass Details

Date: 13 May 2021
Orbit: 606 x 630 km, 82.5° (Epoch: 20 June)

Event Time Altitude Azimuth Distance (km) Brightness Sun altitude
Exits shadow 19:25:00 - 173° (S) 2,337 6.1 -9.4°
Reaches altitude 10° 19:25:53 10° 170° (S) 1,987 5.7 -9.5°
Maximum altitude 19:30:09 53° 95° (E) 769 3.8 -9.9°
Drops below altitude 10° 19:34:26 10° 19° (NNE) 1,988 6.5 -10.4°
Sets 19:36:42 0° 14° (NNE) 2,894 7.5 -10.7°
